Date String (YYYY-MM-DD hh:mm:ss) UTC,Instrument flags,Ambient pressure (hPa),Sample flow (lpm),Bypass flow (lpm),Sample temperature (°C),Ambient temperature (°C),ASC tube jacket temperature (°C),LED temperature (°C),Box temperature (°C),Sample RH (%),Span deviation,Mass concentration (μg/m³),Mass concentration (μg/m³),Mass concentration (μg/m³)
DateTimeUTC,F1_M11,P_M11,Q1_M11,Q2_M11,T1_M11,T2_M11,T3_M11,T4_M11,T5_M11,U1_M11,ZSPAN_M11,X0_M11,X2_M11,X1_M11
2021-12-31 06:00:00,,0807.9,4.99,0.00,21.7,21.8,00.0,30.9,23.5,09.5,0000.0,0004.04,0001.18,0000.74
2021-12-31 06:01:00,,0808.0,5.00,0.00,21.9,22.7,00.0,30.9,23.9,09.4,0000.0,0004.31,0001.19,0000.74
2021-12-31 06:02:00,,0807.8,5.00,0.00,22.0,23.0,00.0,31.0,24.1,09.4,0000.0,0003.84,0001.17,0000.73
2021-12-31 06:03:00,,0807.6,5.01,0.00,22.1,22.7,00.0,31.0,24.1,09.4,0000.0,0003.45,0001.14,0000.72
2021-12-31 06:04:00,,0807.6,5.00,0.00,22.1,22.5,00.0,31.0,24.0,09.5,0000.0,0003.40,0001.16,0000.71
2021-12-31 06:05:00,,0807.8,4.99,0.00,22.1,22.3,00.0,31.0,24.0,09.5,0000.0,0002.68,0001.14,0000.69
2021-12-31 06:06:00,,0807.8,4.99,0.00,22.1,22.2,00.0,31.0,24.0,09.6,0000.0,0002.49,0001.09,0000.67
2021-12-31 06:07:00,,0807.8,5.00,0.00,22.1,22.0,00.0,31.0,23.9,09.7,0000.0,0002.38,0001.03,0000.64
2021-12-31 06:08:00,,0807.8,5.00,0.00,22.1,21.9,00.0,31.1,23.9,09.8,0000.0,0002.30,0001.00,0000.61
2021-12-31 06:09:00,,0807.9,4.99,0.00,22.1,21.8,00.0,31.1,23.8,09.8,0000.0,0002.20,0000.97,0000.60
2021-12-31 06:10:00,,0807.7,5.01,0.00,22.1,21.7,00.0,31.1,23.7,09.8,0000.0,0002.03,0000.91,0000.57
2021-12-31 06:11:00,,0807.9,4.99,0.00,22.0,21.6,00.0,31.1,23.7,10.1,0000.0,0001.71,0000.84,0000.54
2021-12-31 06:12:00,,0807.9,5.00,0.00,22.0,21.4,00.0,31.1,23.6,10.1,0000.0,0001.75,0000.77,0000.51
2021-12-31 06:13:00,,0807.8,5.00,0.00,22.0,21.3,00.0,31.1,23.6,10.3,0000.0,0001.76,0000.72,0000.46
2021-12-31 06:14:00,,0807.9,5.00,0.00,21.9,21.2,00.0,31.0,23.5,10.5,0000.0,0002.18,0000.65,0000.42
2021-12-31 06:15:00,,0808.0,5.00,0.00,21.8,21.2,00.0,31.0,23.4,10.6,0000.0,0002.18,0000.58,0000.39
2021-12-31 06:16:00,,0808.0,5.00,0.00,21.8,21.2,00.0,31.0,23.4,10.7,0000.0,0002.14,0000.52,0000.35
2021-12-31 06:17:00,,0807.9,5.00,0.00,21.8,21.2,00.0,31.0,23.4,10.7,0000.0,0002.24,0000.51,0000.32
2021-12-31 06:18:00,,0808.0,5.00,0.00,21.8,21.2,00.0,31.0,23.4,10.6,0000.0,0002.36,0000.52,0000.30
2021-12-31 06:19:00,,0808.1,5.00,0.00,21.8,21.2,00.0,31.0,23.5,10.6,0000.0,0002.39,0000.49,0000.28
2021-12-31 06:20:00,,0808.0,5.01,0.00,21.8,21.2,00.0,31.0,23.5,10.5,0000.0,0002.33,0000.46,0000.26
2021-12-31 06:21:00,,0807.9,5.00,0.00,21.8,21.2,00.0,31.0,23.5,10.6,0000.0,0003.29,0000.45,0000.25
2021-12-31 06:22:00,,0808.0,4.99,0.00,21.8,21.2,00.0,30.9,23.5,10.6,0000.0,0003.59,0000.44,0000.24
2021-12-31 06:23:00,,0808.1,5.01,0.00,21.8,21.2,00.0,30.9,23.5,10.6,0000.0,0003.18,0000.46,0000.24
2021-12-31 06:24:00,,0808.0,5.00,0.00,21.8,21.1,00.0,30.9,23.5,10.6,0000.0,0003.06,0000.47,0000.24
2021-12-31 06:25:00,,0807.9,4.99,0.00,21.8,21.2,00.0,30.9,23.5,10.8,0000.0,0002.40,0000.47,0000.24
2021-12-31 06:26:00,,0808.0,5.00,0.00,21.8,21.2,00.0,30.9,23.4,10.8,0000.0,0002.47,0000.49,0000.25
2021-12-31 06:27:00,,0807.9,5.00,0.00,21.8,21.1,00.0,30.9,23.4,10.7,0000.0,0002.43,0000.51,0000.25
2021-12-31 06:28:00,,0807.8,5.00,0.00,21.8,21.1,00.0,30.9,23.4,10.9,0000.0,0002.38,0000.51,0000.25
2021-12-31 06:29:00,,0808.0,5.00,0.00,21.8,21.1,00.0,30.9,23.4,10.8,0000.0,0002.29,0000.49,0000.26
2021-12-31 06:30:00,,0807.9,4.99,0.00,21.8,21.1,00.0,30.9,23.4,10.7,0000.0,0002.23,0000.48,0000.26
2021-12-31 06:31:00,,0808.0,5.01,0.00,21.8,21.1,00.0,30.9,23.5,10.7,0000.0,0002.24,0000.49,0000.26
2021-12-31 06:32:00,,0808.0,4.99,0.00,21.8,21.2,00.0,30.9,23.5,10.7,0000.0,0001.08,0000.47,0000.25
2021-12-31 06:33:00,,0808.0,4.99,0.00,21.8,21.2,00.0,30.9,23.5,10.7,0000.0,0000.87,0000.45,0000.24
2021-12-31 06:34:00,,0808.0,5.01,0.00,21.8,21.2,00.0,30.9,23.5,10.7,0000.0,0000.85,0000.44,0000.24
2021-12-31 06:35:00,,0808.0,4.99,0.00,21.8,21.2,00.0,30.9,23.5,10.9,0000.0,0000.88,0000.45,0000.24
2021-12-31 06:36:00,,0807.9,4.99,0.00,21.8,21.2,00.0,30.9,23.5,10.9,0000.0,0000.85,0000.44,0000.24
2021-12-31 06:37:00,,0807.8,4.99,0.00,21.8,21.2,00.0,30.8,23.5,10.9,0000.0,0000.79,0000.42,0000.24
2021-12-31 06:38:00,,0807.9,5.02,0.00,21.8,21.1,00.0,30.8,23.5,10.8,0000.0,0000.77,0000.42,0000.24
2021-12-31 06:39:00,,0808.0,5.00,0.00,21.8,21.3,00.0,30.8,23.5,10.8,0000.0,0000.70,0000.40,0000.24
2021-12-31 06:40:00,,0807.9,5.00,0.00,21.9,22.0,00.0,30.9,23.7,10.7,0000.0,0000.76,0000.39,0000.23
2021-12-31 06:41:00,,0807.9,5.00,0.00,22.0,22.8,00.0,30.9,24.0,10.7,0000.0,0001.39,0000.38,0000.23
2021-12-31 06:42:00,,0808.0,5.01,0.00,22.2,23.0,00.0,31.0,24.2,10.7,0000.0,0001.36,0000.37,0000.23
2021-12-31 06:43:00,,0808.1,4.99,0.00,22.2,22.8,00.0,31.0,24.2,10.7,0000.0,0001.36,0000.37,0000.22
2021-12-31 06:44:00,,0808.0,5.01,0.00,22.3,22.6,00.0,31.0,24.1,10.7,0000.0,0001.39,0000.39,0000.22
2021-12-31 06:45:00,,0808.0,4.98,0.00,22.3,22.4,00.0,31.1,24.1,10.7,0000.0,0001.36,0000.38,0000.21
2021-12-31 06:46:00,,0807.9,5.01,0.00,22.3,22.2,00.0,31.1,24.1,10.6,0000.0,0001.28,0000.34,0000.21
2021-12-31 06:47:00,,0808.0,5.01,0.00,22.3,22.1,00.0,31.1,24.0,10.5,0000.0,0001.39,0000.35,0000.21
2021-12-31 06:48:00,,0808.0,5.00,0.00,22.3,22.0,00.0,31.1,24.0,10.4,0000.0,0001.58,0000.36,0000.20
2021-12-31 06:49:00,,0807.8,5.01,0.00,22.2,21.9,00.0,31.1,24.0,10.3,0000.0,0001.76,0000.39,0000.22
2021-12-31 06:50:00,,0807.7,4.99,0.00,22.2,21.8,00.0,31.1,23.9,10.4,0000.0,0001.83,0000.39,0000.23
2021-12-31 06:51:00,,0807.7,5.01,0.00,22.2,21.7,00.0,31.1,23.9,10.4,0000.0,0001.62,0000.39,0000.24
2021-12-31 06:52:00,,0808.0,5.02,0.00,22.2,21.7,00.0,31.1,23.9,10.4,0000.0,0001.13,0000.42,0000.25
2021-12-31 06:53:00,,0807.9,4.99,0.00,22.2,21.7,00.0,31.1,23.9,10.4,0000.0,0001.13,0000.43,0000.26
2021-12-31 06:54:00,,0807.8,5.00,0.00,22.2,21.7,00.0,31.1,23.9,10.4,0000.0,0001.12,0000.42,0000.27
2021-12-31 06:55:00,,0807.9,5.00,0.00,22.2,21.7,00.0,31.1,23.9,10.4,0000.0,0001.11,0000.42,0000.28
2021-12-31 06:56:00,,0807.8,5.02,0.00,22.2,21.7,00.0,31.2,23.9,10.4,0000.0,0001.27,0000.47,0000.30
2021-12-31 06:57:00,,0807.9,4.99,0.00,22.2,21.6,00.0,31.2,23.9,10.4,0000.0,0001.46,0000.51,0000.31
2021-12-31 06:58:00,,0807.8,5.00,0.00,22.2,21.6,00.0,31.2,23.9,10.4,0000.0,0001.39,0000.52,0000.33
2021-12-31 06:59:00,,0807.8,5.02,0.00,22.2,21.6,00.0,31.2,23.9,10.5,0000.0,0001.21,0000.52,0000.34
